This demonstration page uses our WeatherBlox Daily Observations layout. Learn more.

Hourly Observations for September 12, 2018

Temp ( °F °C ) Dew Point ( °F °C ) Humidity (%) Winds ( mph kmh ) Pressure ( in mb ) Visibility ( mi km ) Precip ( " mm )
12:15 am 00:15 Clear 66 18.7 61 16.1 85 85 S 12 19 29.91 1013 10 16.09344 0 0
12:35 am 00:35 Clear 65 18.5 61 16.2 87 87 S 12 19 29.91 1013 10 16.09344 0 0
12:55 am 00:55 Clear 65 18.5 61 16.1 86 86 S 13 20 29.91 1013 10 16.09344 0 0
1:15 am 01:15 Clear 65 18.2 61 16 87 87 S 13 20 29.91 1013 10 16.09344 0 0
1:35 am 01:35 Clear 64 18 61 16 88 88 S 12 19 29.91 1013 10 16.09344 0 0
1:55 am 01:55 Clear 64 18 61 16.1 89 89 S 13 20 29.91 1013 10 16.09344 0 0
2:15 am 02:15 Clear 64 17.5 61 16 91 91 SSE 10 17 29.91 1013 10 16.09344 0 0
2:35 am 02:35 Clear 63 17.1 61 16 93 93 SSE 8 13 29.91 1013 10 16.09344 0 0
2:55 am 02:55 Clear 62 16.5 60 15.7 95 95 SSE 8 13 29.91 1013 10 16.09344 0 0
3:15 am 03:15 Clear 61 16.3 60 15.6 96 96 SSE 8 13 29.91 1013 10 16.09344 0 0
3:35 am 03:35 Clear 61 16 60 15.5 97 97 SSE 8 13 29.91 1013 10 16.09344 0 0
3:55 am 03:55 Clear 60 15.8 60 15.5 98 98 SSE 7 11 29.91 1013 10 16.09344 0 0
4:15 am 04:15 Clear 60 15.7 60 15.5 99 99 SSE 8 13 29.91 1013 10 16.09344 0 0
4:35 am 04:35 Clear 60 15.7 60 15.5 99 99 SSE 7 11 29.91 1013 10 16.09344 0 0
4:55 am 04:55 Clear 60 15.8 60 15.5 98 98 SSE 9 15 29.91 1013 10 16.09344 0 0
5:15 am 05:15 Clear 61 15.9 60 15.6 98 98 SSE 9 15 29.91 1013 10 16.09344 0 0
5:35 am 05:35 Clear 60 15.8 60 15.5 98 98 SSE 9 15 29.91 1013 10 16.09344 0 0
5:55 am 05:55 Clear 60 15.7 60 15.5 99 99 SSE 9 15 29.91 1013 10 16.09344 0 0
6:15 am 06:15 Clear 60 15.6 60 15.5 99 99 SSE 10 17 29.94 1014 10 16.09344 0 0
6:35 am 06:35 Clear 60 15.6 60 15.6 100 100 SSE 10 17 29.94 1014 10 16.09344 0 0
6:55 am 06:55 Clear 60 15.6 60 15.6 100 100 SSE 9 15 29.94 1014 10 16.09344 0 0
7:15 am 07:15 Clear 60 15.7 60 15.7 100 100 SSE 9 15 29.91 1013 10 16.09344 0 0
7:35 am 07:35 Sunny 60 15.7 60 15.7 100 100 SSE 13 20 29.91 1013 10 16.09344 0 0
7:55 am 07:55 Sunny 60 15.8 60 15.7 99 99 SSE 10 17 29.91 1013 10 16.09344 0 0
8:15 am 08:15 Partly Cloudy 61 16.2 61 16 99 99 SSE 12 19 29.91 1013 10 16.09344 0 0
8:35 am 08:35 Partly Cloudy 62 16.5 61 16.2 98 98 SSE 13 20 29.91 1013 10 16.09344 0 0
8:55 am 08:55 Cloudy 63 17.2 62 16.6 96 96 S 13 20 29.91 1013 10 16.09344 0 0
9:15 am 09:15 Cloudy 64 17.8 63 17 95 95 S 14 22 29.91 1013 10 16.09344 0 0
9:35 am 09:35 Mostly Cloudy 65 18.5 63 17.1 92 92 S 15 24 29.91 1013 10 16.09344 0 0
9:55 am 09:55 Partly Cloudy 67 19.4 64 17.5 89 89 S 14 22 29.94 1014 10 16.09344 0 0
10:15 am 10:15 Partly Cloudy 68 20.2 64 17.6 85 85 SSE 16 26 29.91 1013 10 16.09344 0 0
10:35 am 10:35 Sunny 69 20.7 63 17.4 81 81 S 13 20 29.91 1013 10 16.09344 0 0
10:55 am 10:55 Sunny 71 21.5 64 17.5 78 78 SSE 17 28 29.91 1013 10 16.09344 0 0
11:15 am 11:15 Sunny 72 22.2 64 17.5 75 75 S 13 20 29.91 1013 10 16.09344 0 0
11:35 am 11:35 Sunny 73 22.8 64 17.7 73 73 SSE 16 26 29.91 1013 10 16.09344 0 0
11:55 am 11:55 Sunny 74 23.2 64 17.8 72 72 SSE 16 26 29.85 1011 10 16.09344 0 0
12:15 pm 12:15 Sunny 75 23.7 65 18.2 71 71 SSE 18 30 29.85 1011 10 16.09344 0 0
12:35 pm 12:35 Sunny 75 24 65 18.2 70 70 SSE 17 28 29.85 1011 10 16.09344 0 0
12:55 pm 12:55 Sunny 75 24.1 65 18.5 71 71 SE 21 33 29.85 1011 10 16.09344 0 0
1:15 pm 13:15 Sunny 76 24.2 65 18.4 70 70 SSE 22 35 29.85 1011 10 16.09344 0 0
1:35 pm 13:35 Sunny 76 24.3 65 18.5 70 70 SSE 18 30 29.85 1011 10 16.09344 0 0
1:55 pm 13:55 Partly Cloudy 76 24.4 65 18.5 70 70 SSE 18 30 29.83 1010 10 16.09344 0 0
2:15 pm 14:15 Partly Cloudy 76 24.6 65 18.5 69 69 SSE 22 35 29.83 1010 10 16.09344 0 0
2:35 pm 14:35 Partly Cloudy 77 24.8 66 18.8 69 69 SSE 22 35 29.83 1010 10 16.09344 0 0
2:55 pm 14:55 Partly Cloudy 77 25.1 66 18.8 68 68 SSE 22 35 29.83 1010 10 16.09344 0 0
3:15 pm 15:15 Partly Cloudy 78 25.5 66 18.9 67 67 SSE 21 33 29.83 1010 10 16.09344 0 0
3:35 pm 15:35 Mostly Cloudy 77 25.1 66 18.7 68 68 SSE 25 41 29.83 1010 10 16.09344 0 0
3:55 pm 15:55 Partly Cloudy 78 25.6 66 18.8 66 66 SSE 20 31 29.83 1010 10 16.09344 0 0
4:15 pm 16:15 Partly Cloudy 78 25.7 66 18.8 66 66 SSE 24 39 29.8 1009 10 16.09344 0 0
4:35 pm 16:35 Partly Cloudy 78 25.5 65 18.6 66 66 SE 25 41 29.8 1009 10 16.09344 0 0
4:55 pm 16:55 Partly Cloudy 78 25.7 66 18.7 65 65 SSE 22 35 29.8 1009 10 16.09344 0 0
5:15 pm 17:15 Partly Cloudy 78 25.6 66 18.7 66 66 SSE 23 37 29.8 1009 10 16.09344 0 0
5:35 pm 17:35 Mostly Cloudy 78 25.8 66 18.7 65 65 SSE 23 37 29.8 1009 10 16.09344 0 0
5:55 pm 17:55 Partly Cloudy 78 25.6 66 18.7 66 66 SSE 17 28 29.8 1009 10 16.09344 0 0
6:15 pm 18:15 Partly Cloudy 78 25.3 66 18.7 67 67 SSE 20 31 29.8 1009 10 16.09344 0 0
6:35 pm 18:35 Sunny 77 25 66 18.7 68 68 SSE 22 35 29.8 1009 10 16.09344 0 0
6:55 pm 18:55 Sunny 76 24.6 65 18.6 69 69 SSE 18 30 29.8 1009 10 16.09344 0 0
7:15 pm 19:15 Sunny 76 24.2 65 18.3 70 70 SSE 15 24 29.8 1009 10 16.09344 0 0
7:35 pm 19:35 Sunny 74 23.5 65 18.1 72 72 SSE 15 24 29.8 1009 10 16.09344 0 0
7:55 pm 19:55 Clear 73 22.8 64 18 74 74 SSE 13 20 29.8 1009 10 16.09344 0 0
8:15 pm 20:15 Clear 72 22.2 64 17.8 76 76 SE 13 20 29.8 1009 10 16.09344 0 0
8:35 pm 20:35 Clear 71 21.5 64 17.9 80 80 SE 12 19 29.83 1010 10 16.09344 0 0
8:55 pm 20:55 Clear 70 21.1 64 18 83 83 SE 13 20 29.83 1010 10 16.09344 0 0
9:15 pm 21:15 Clear 69 20.8 65 18.1 85 85 SE 14 22 29.83 1010 10 16.09344 0 0
9:35 pm 21:35 Clear 69 20.7 65 18.1 85 85 SSE 15 24 29.83 1010 10 16.09344 0 0
9:55 pm 21:55 Clear 69 20.6 64 17.9 85 85 SSE 15 24 29.83 1010 10 16.09344 0 0
10:15 pm 22:15 Clear 69 20.6 64 17.6 83 83 SSE 16 26 29.85 1011 10 16.09344 0 0
10:35 pm 22:35 Clear 69 20.4 64 17.5 84 84 SSE 15 24 29.85 1011 10 16.09344 0 0
10:55 pm 22:55 Clear 68 20.2 64 17.6 85 85 SSE 16 26 29.85 1011 10 16.09344 0 0
11:15 pm 23:15 Clear 68 20.1 65 18.2 89 89 SSE 17 28 29.85 1011 10 16.09344 0 0
11:35 pm 23:35 Clear 68 20 65 18.5 91 91 SSE 16 26 29.85 1011 10 16.09344 0 0
11:55 pm 23:55 Clear 68 19.8 65 18.6 93 93 SSE 17 28 29.85 1011 10 16.09344 0 0

Powered by AerisWeather